SCP
1 1 1 1 1 1 1 1 1 1 1 1 1 1 1 1 1 1 1 1 0 0 0 1 1 1 1 1 1 1 2 2 2 2 1 1 1 1 1 1 1 1 1
1 1 1 1 1 1 1 1 1 1 1 1 1 1 1 1 1 1 1 1 1 0 1 1 1 1 2 2 2 2 2 2 2 2 2 1 1 1 1 1 1 2 3
1 1 1 1 1 1 1 1 1 1 1 1 1 1 1 1 1 1 1 1 1 1 1 1 1 1 2 2 3 3 3 3 2 2 2 2 2 1 1 1 1 3 4
2 2 2 1 1 1 1 1 1 1 2 2 2 1 1 1 1 1 1 1 1 1 1 1 2 2 2 3 3 3 3 3 3 3 3 3 3 2 1 1 2 3 4
2 2 2 2 1 1 1 1 2 2 2 2 2 1 1 1 1 1 1 1 1 1 1 1 2 2 2 3 3 3 3 3 4 5 5 4 4 3 2 1 2 3 3
2 2 2 2 2 1 1 1 2 3 3 2 2 2 1 1 1 1 2 2 1 1 1 1 2 2 2 2 3 3 3 3 4 6 6 5 4 3 2 1 1 1 2
2 2 2 2 2 2 2 2 3 3 3 3 3 2 2 2 2 2 2 2 2 1 1 1 1 2 2 2 3 3 3 3 4 6 6 5 5 4 3 2 1 1 1
2 2 2 2 3 2 2 2 3 4 4 4 4 3 3 2 2 2 2 2 2 2 1 1 1 2 2 2 2 3 3 3 3 4 5 4 4 4 3 2 1 1 1
3 3 3 3 3 3 3 3 3 4 4 4 4 4 3 3 2 2 2 2 2 2 2 2 2 2 2 2 2 3 3 3 3 3 3 3 3 3 2 2 1 1 1
3 4 4 3 3 3 3 3 3 4 4 4 4 4 4 3 3 3 2 2 2 2 2 2 3 2 2 2 2 3 3 3 3 2 2 2 2 2 2 1 1 1 1
3 4 5 4 3 3 3 3 3 3 3 3 4 5 4 4 3 3 3 3 3 3 4 3 3 3 3 3 3 3 3 3 2 2 2 3 3 2 2 2 2 1 1
3 5 6 5 3 3 3 3 3 3 3 3 4 4 4 4 4 4 4 4 4 5 5 5 4 4 4 4 3 3 3 3 3 3 3 3 3 3 3 2 2 2 2
4 5 7 8 8 6 5 4 4 4 3 3 4 4 5 5 5 6 6 6 6 6 6 6 6 5 5 4 4 4 4 3 3 3 3 3 3 3 3 3 3 3 3
4 5 7 10 12 11 8 6 6 6 6 6 6 7 7 7 8 9 9 10 9 8 7 7 7 6 5 5 4 4 4 4 4 3 4 4 4 4 4 4 4 4 4
3 4 5 8 10 10 9 8 9 10 10 10 11 11 11 11 11 12 12 11 10 9 8 7 7 6 5 4 5 4 4 4 4 3 3 4 4 4 4 5 5 6 6
3 4 5 6 7 8 8 9 10 11 12 14 16 16 15 15 14 14 12 10 8 8 7 7 7 6 4 4 4 4 4 4 4 4 4 4 5 5 5 4 4 5 6
4 4 5 6 7 7 7 7 8 9 11 13 16 17 16 16 15 13 10 8 6 6 7 7 7 6 4 3 3 3 4 5 5 5 5 5 5 6 6 5 4 4 4
4 4 5 5 6 6 6 6 6 7 9 11 13 15 15 14 13 10 8 7 7 7 7 8 8 7 5 3 2 3 4 5 6 6 6 6 7 7 7 7 7 6 4
5 6 6 6 5 5 5 6 6 6 7 9 12 15 15 13 10 7 6 7 8 8 8 7 8 7 6 4 2 3 5 7 7 7 7 7 7 7 7 8 9 7 5
6 7 7 6 6 5 6 7 7 7 7 9 12 14 13 11 9 7 6 7 9 10 9 8 8 8 7 4 2 2 5 8 8 8 7 7 6 5 5 6 7 6 4
5 6 7 6 5 5 6 7 8 7 7 8 9 9 8 7 7 8 7 7 9 10 10 10 10 10 8 5 3 2 4 7 8 8 8 6 4 2 2 3 4 4 3
4 5 5 5 5 5 5 6 7 7 7 6 6 5 4 5 6 8 10 9 9 8 9 10 11 11 9 6 3 2 2 4 7 8 8 5 3 1 1 1 2 2 2
4 5 6 6 6 6 5 5 5 6 6 5 4 3 4 4 6 8 10 10 9 8 8 9 9 9 8 6 3 2 1 2 5 7 5 3 1 0 0 0 1 1 2
4 5 6 7 8 8 7 5 4 5 5 5 4 4 5 5 7 10 11 11 10 9 9 10 9 8 7 6 4 3 2 3 4 4 3 2 1 1 1 1 1 2 2
3 4 4 5 7 7 7 6 5 5 5 6 5 5 6 7 9 12 13 11 9 8 9 11 10 8 7 5 4 4 3 3 3 3 3 3 2 2 2 2 3 3 3
2 2 3 4 5 6 6 5 5 5 6 6 6 6 7 9 11 13 12 9 6 6 8 10 10 7 5 4 4 4 3 3 2 3 4 4 3 3 3 3 3 3 3
Wind_Speed
11 12 11 11 11 11 10 10 9 9 7 6 6 5 5 5 5 4 4 5 5 4 4 3 3 4 3 2 3 3 3 3 2 3 3 3 4 2 2 2 2 2 3
11 12 12 12 12 12 11 11 10 10 9 6 5 4 4 4 4 3 3 5 4 4 5 4 4 4 3 3 3 3 3 2 1 3 3 2 3 4 2 2 3 3 2
12 13 14 13 13 13 13 11 11 10 10 8 6 5 4 4 4 5 4 4 4 4 4 4 4 3 4 3 3 3 3 3 2 2 3 3 1 1 2 2 2 2 2
12 13 14 14 14 14 13 12 12 11 10 10 8 8 6 6 5 4 3 4 4 5 5 5 4 4 4 2 4 2 3 4 3 2 3 3 3 3 2 3 2 2 3
12 13 14 14 14 13 13 12 12 12 11 11 10 9 8 6 5 5 4 4 4 5 5 5 4 4 4 3 4 3 4 4 4 3 3 3 3 5 4 3 2 2 2
11 11 12 12 12 12 12 12 13 13 12 12 11 10 9 8 7 6 5 6 5 5 6 5 5 5 4 3 4 4 5 4 4 4 4 4 3 3 3 4 3 3 2
10 10 11 12 12 12 13 12 13 13 13 13 12 12 11 10 10 8 7 6 5 5 5 5 5 4 4 4 4 5 5 5 5 5 4 4 4 4 4 4 4 4 3
9 10 10 10 11 12 12 12 13 13 13 13 12 11 11 10 8 9 8 7 6 5 4 5 5 5 5 5 5 5 5 5 5 6 5 5 4 4 4 4 4 4 4
6 8 9 9 10 11 12 12 12 11 12 12 12 11 11 10 9 8 8 7 6 5 6 6 6 6 5 5 5 5 5 5 6 5 6 6 4 4 4 4 4 5 5
4 5 7 7 8 9 11 11 11 11 10 11 11 10 11 10 9 9 9 8 7 6 6 7 7 6 6 6 6 6 5 5 5 5 5 5 5 4 4 4 4 5 5
3 4 5 6 7 7 8 9 9 10 9 9 9 9 10 10 10 9 9 9 8 8 8 7 7 7 7 6 6 7 6 6 6 6 6 6 5 4 4 4 4 4 5
2 3 3 5 6 6 6 7 8 8 8 8 8 9 9 9 10 10 10 9 9 9 8 8 8 8 8 7 7 8 7 7 7 7 6 6 5 5 5 4 5 4 4
1 2 2 3 4 5 5 6 6 7 7 7 8 8 9 10 10 9 9 9 9 8 8 8 8 8 7 7 7 7 7 7 7 7 7 7 6 6 4 5 5 5 5
1 1 2 2 2 3 4 4 5 5 5 6 7 8 8 8 9 9 9 9 9 9 8 8 8 8 7 7 7 7 7 7 7 7 7 7 6 6 5 5 5 5 5
1 1 1 1 2 3 3 3 3 3 4 5 6 7 7 7 7 8 8 8 9 9 8 8 8 8 7 6 6 7 7 6 6 6 6 6 4 3 4 4 4 4 5
1 1 1 1 1 2 3 3 3 3 3 4 4 4 5 6 7 7 8 8 8 8 8 9 8 8 6 4 5 6 6 5 6 6 6 5 5 4 4 3 3 4 6
2 1 1 1 0 1 2 3 3 3 4 3 3 3 3 4 5 6 6 7 7 7 8 8 8 8 6 6 6 6 6 6 5 5 6 5 3 5 5 5 6 5 4
2 1 1 1 1 1 2 2 3 3 4 3 3 3 3 3 3 4 5 6 6 6 7 7 8 7 7 8 8 7 8 6 5 6 6 5 5 4 4 5 5 5 4
3 2 2 2 1 1 1 2 3 3 3 4 4 3 3 3 3 4 5 4 4 5 6 6 7 7 7 8 9 8 6 5 6 7 6 6 6 3 3 5 5 4 4
3 3 2 2 2 2 2 2 3 3 3 4 3 3 3 4 4 4 5 4 4 5 5 5 6 7 7 8 9 9 6 6 6 5 6 6 5 5 5 6 5 5 4
4 4 3 3 2 2 2 3 3 3 3 3 3 3 3 4 4 4 4 4 5 5 5 5 5 5 5 7 10 9 6 5 6 5 5 3 6 5 5 6 5 4 4
4 4 4 3 3 2 3 3 4 3 3 3 4 4 4 5 4 4 5 5 5 5 5 5 4 4 4 5 7 8 8 6 6 5 4 2 5 4 5 5 3 3 5
4 4 4 4 3 3 4 5 4 4 4 4 4 4 5 5 4 5 5 5 5 6 5 4 4 3 3 4 7 8 7 7 5 3 0 2 5 5 5 6 6 6 6
5 4 4 4 4 4 4 4 4 4 5 5 5 4 5 5 4 4 5 5 5 5 5 4 4 3 3 3 3 4 4 5 5 3 2 5 7 6 4 5 6 6 4
5 5 5 5 5 5 5 5 5 4 6 6 6 6 5 5 4 5 4 5 4 3 4 4 4 4 4 2 2 3 3 3 2 2 3 4 4 4 4 4 4 4 4
6 6 7 7 7 6 5 5 5 5 6 6 6 5 5 4 5 5 3 1 2 0 1 3 5 4 1 3 3 2 2 3 5 4 5 4 4 4 4 4 4 4 4
Wind_Direction
189 188 191 191 189 188 189 192 192 185 191 195 200 199 198 203 206 212 209 223 236 229 239 255 221 238 233 243 244 248 229 242 256 264 248 214 215 229 225 238 256 236 234
189 189 193 194 193 191 193 193 194 192 196 193 203 209 213 214 214 221 206 226 230 235 228 234 240 229 225 230 243 254 276 273 248 278 281 243 195 207 214 220 226 256 242
193 189 192 194 195 195 196 196 197 197 199 195 197 197 201 220 210 213 214 224 230 236 252 245 256 255 249 225 236 240 245 266 258 259 286 295 299 305 188 225 230 243 256
197 193 192 196 198 198 195 196 195 198 196 196 204 204 209 216 216 221 212 215 226 234 235 239 245 251 259 241 243 222 253 256 264 244 255 281 315 290 271 225 218 226 240
199 197 196 197 199 197 195 193 194 197 196 199 202 209 218 221 219 218 212 229 222 232 237 237 238 238 250 252 264 251 252 250 260 264 249 243 235 250 269 279 275 249 234
198 198 197 195 199 197 196 194 192 197 198 201 205 210 217 223 226 224 219 220 219 221 224 230 235 241 249 242 245 247 235 251 264 272 268 258 254 249 258 266 262 265 255
196 194 193 192 196 198 198 197 196 198 199 202 206 208 214 217 220 226 223 232 232 222 216 228 226 239 245 248 245 239 251 241 243 249 258 264 264 269 268 273 277 276 264
190 192 192 195 197 198 198 199 199 201 201 202 205 209 211 217 219 220 233 225 235 234 218 220 227 233 237 241 237 247 239 237 244 249 255 262 262 265 265 273 280 277 264
186 187 188 193 198 199 198 199 198 202 204 205 205 208 211 220 224 217 223 230 229 228 217 221 225 230 232 238 239 248 250 243 244 246 234 247 250 251 260 261 265 275 283
180 183 186 187 192 197 196 198 198 203 207 207 208 206 209 213 219 225 223 231 231 231 229 225 227 227 226 229 238 245 239 244 242 251 261 258 258 258 255 254 255 258 271
173 172 176 182 182 184 189 192 194 199 204 207 208 212 210 209 213 219 224 224 229 227 228 229 229 230 229 228 231 247 242 245 245 246 242 243 260 263 265 259 258 254 258
149 161 165 169 172 175 180 185 190 195 203 205 205 210 212 212 214 215 218 218 221 225 225 228 231 234 232 231 232 240 241 243 245 243 241 241 237 238 258 265 263 264 263
126 145 151 161 169 175 179 180 188 194 198 201 208 213 215 214 216 218 216 215 217 222 225 225 227 232 233 233 235 240 244 247 248 244 240 240 242 245 248 255 261 261 255
77 111 137 152 159 168 175 185 190 189 194 202 211 216 221 221 220 220 219 219 218 219 222 224 225 228 232 235 237 238 242 245 249 249 245 241 241 242 242 243 248 259 266
50 42 134 142 156 168 176 182 185 182 191 202 216 222 225 225 224 223 222 221 220 220 219 222 224 228 228 231 233 237 235 238 245 246 245 241 237 259 263 268 258 255 258
23 24 34 103 149 180 183 175 177 177 184 203 219 224 228 225 221 220 219 219 220 222 220 222 224 225 227 196 207 235 242 240 244 249 249 243 217 210 227 257 277 283 263
3 358 357 337 223 210 195 180 179 177 183 197 217 221 225 221 219 220 217 220 221 220 222 223 224 226 217 190 193 212 237 240 242 247 249 253 229 208 221 210 217 237 253
352 338 323 315 268 205 183 195 187 187 191 201 219 222 223 226 227 224 221 223 224 224 225 226 226 228 213 188 194 207 225 234 237 243 243 242 241 233 234 240 234 233 232
334 332 321 312 311 280 204 193 210 205 210 217 224 227 229 233 229 223 223 225 228 229 231 230 230 228 217 192 192 206 223 224 235 239 237 234 232 188 211 233 234 233 230
341 336 330 325 317 294 265 230 229 231 237 240 240 238 239 240 235 230 226 226 229 231 235 233 232 232 226 192 190 205 228 222 228 228 227 215 217 186 202 229 230 231 235
329 323 315 309 308 292 273 260 255 254 260 254 248 246 242 242 243 241 240 233 232 231 235 236 235 230 221 192 192 206 234 238 237 235 232 202 167 181 207 238 241 239 256
320 317 311 305 299 284 271 267 274 281 273 260 252 250 247 249 242 236 239 236 232 230 225 221 229 222 203 197 190 199 224 261 257 253 249 182 156 189 219 233 221 217 245
316 315 310 304 296 279 267 265 272 274 267 258 253 253 251 248 246 237 236 236 229 235 231 225 227 223 206 187 186 196 208 227 250 265 242 155 176 197 216 205 202 216 235
302 304 304 301 297 294 285 270 266 264 263 258 255 248 244 241 234 235 236 239 241 242 239 237 238 235 220 210 195 200 200 197 213 223 181 184 203 216 212 201 209 227 241
293 293 292 289 288 285 284 280 276 270 266 265 259 255 249 245 243 243 254 252 256 265 252 247 241 238 235 200 168 226 228 227 212 211 221 220 214 218 220 225 227 227 219
290 288 287 287 287 284 279 278 273 266 263 263 262 258 253 243 241 239 244 262 261 203 232 268 267 258 234 151 155 174 183 176 183 216 225 224 227 230 230 234 235 235 233